Location: DARK SKY Beskydy - Park tmavé oblohy, www.darkskybeskydy.cz
(49.4926°N, 18.5016°E)
Time: 04:19:34
(UTC+01:00)

Envisat - Pass Details

Date: 09 December 2022
Orbit: 763 x 765 km, 98.2° (Epoch: 05 February)

Event Time Altitude Azimuth Distance (km) Brightness Sun altitude
Rises 16:14:04 0° 206° (SSW) 3,218 7.3 -4.6°
Reaches altitude 10° 16:16:57 10° 223° (SW) 2,298 7.0 -5.0°
Maximum altitude 16:20:39 20° 270° (W) 1,706 5.8 -5.5°
Drops below altitude 10° 16:24:23 10° 317° (NW) 2,312 5.7 -6.0°
Sets 16:27:18 0° 334° (NNW) 3,244 6.2 -6.5°
